Meteopurmerend
purmerend
Purmerend - Baaienwijk



My webcam  My webcam


Onweer radar Meer informatie blitzortung!


Regen radar Meer informatie rain snow radar


Bezoek onze andere website:

CandyAppleRed WebdesignWebdesign Purmerend Candy Apple Red

MeteopurmerendBlog

Template documentation
and downloads



We konden geen weer-waarchuwingen ophalen. Ga rechtstreeks naar de Meteoalarm site : www.meteoalarm.eu en controleer daar .

15 daagse weersverwachting 0.000N 0.000E

  • Overzicht
  • Per uur
  • 15 dagen
  • Extra
  • Vergelijk
  • Kaarten
  • Dagkaart
  • Meer »
  • Info
  • Statistieken
  • Directe link
    Temp 6h Neerslag Wind  
 02:02     19:07    Daglengte: 17:05 Vandaag
12:00
22°
0.2 mm
7
18:00
20°
 
5
 02:04     19:04    Daglengte: 17:00 Morgen
00:00
16°
 
4
06:00
17°
 
4
12:00
17°
3.1 mm
5
18:00
16°
15.9 mm
2
 02:07     19:02    Daglengte: 16:55 Zaterdag 31 Jul
00:00
13°
 
2
06:00
17°
 
2
12:00
22°
38.3 mm
4
18:00
18°
29.9 mm
2
 02:09     18:59    Daglengte: 16:50 Zondag 01 Aug
00:00
16°
30.2 mm
3
warningclass
06:00
17°
 
3
Locatie info
Region:
Latitude: 60.4202°N
Longitude: 23.2372°E
0 masl
Temp/Neerslag /Baro Onweer/Dauwpunt
    Temp Baro 1h Neerslag Dauwpunt Wind UV Bewolking  
 02:02     19:07    Daglengte: 17:05 Vandaag
10:00
21°
999.1 hPa 0.2 mm
82%
14.0°
6
Windvlaag: 8.8 m/s
17%
11:00
22°
999.0 hPa
78%
13.3°
6
Windvlaag: 8.9 m/s
23%
12:00
22°
998.9 hPa
69%
13.5°
7
Windvlaag: 8.4 m/s
6%
13:00
23°
998.7 hPa
27%
13.8°
7
Windvlaag: 8.2 m/s
11%
14:00
22°
998.6 hPa
18%
13.6°
7
Windvlaag: 8.2 m/s
4%
15:00
22°
998.5 hPa
14%
13.5°
7
Windvlaag: 8.5 m/s
4%
16:00
21°
998.4 hPa
14%
13.7°
6
Windvlaag: 8.2 m/s
6%
17:00
21°
998.0 hPa
18%
14.4°
6
Windvlaag: 8 m/s
12%
18:00
20°
997.9 hPa
32%
15.4°
5
Windvlaag: 7.7 m/s
26%
19:00
19°
997.7 hPa
15%
16.2°
4
Windvlaag: 8.1 m/s
29%
20:00
18°
997.5 hPa
14%
16.1°
4
Windvlaag: 8.2 m/s
21%
21:00
18°
997.2 hPa
14%
16.3°
4
Windvlaag: 7.8 m/s
8%
22:00
17°
996.8 hPa
19%
16.1°
4
Windvlaag: 8.2 m/s
16%
23:00
17°
996.5 hPa
19%
15.5°
4
Windvlaag: 7.6 m/s
27%
 02:04     19:04    Daglengte: 17:00 Morgen
00:00
16°
996.3 hPa
72%
15.0°
4
Windvlaag: 7 m/s
2%
01:00
16°
995.9 hPa
21%
14.7°
3
Windvlaag: 6.3 m/s
7%
02:00
15°
995.5 hPa
14%
14.6°
3
Windvlaag: 5.6 m/s
16%
03:00
15°
995.3 hPa
14%
14.5°
4
Windvlaag: 6.7 m/s
21%
04:00
16°
994.9 hPa
82%
14.4°
4
Windvlaag: 7.3 m/s
26%
05:00
16°
994.4 hPa
78%
14.4°
4
Windvlaag: 8.4 m/s
66%
06:00
17°
993.9 hPa
22%
14.7°
4
Windvlaag: 8.3 m/s
64%
07:00
17°
993.6 hPa
80%
14.7°
4
Windvlaag: 8 m/s
51%
08:00
18°
993.3 hPa
41%
15.6°
4
Windvlaag: 8.6 m/s
25%
09:00
18°
993.2 hPa
81%
15.3°
4
Windvlaag: 9.3 m/s
58%
10:00
17°
993.2 hPa
82%
15.4°
5
Windvlaag: 9.2 m/s
60%
11:00
17°
992.8 hPa
82%
15.9°
4
Windvlaag: 8.3 m/s
70%
12:00
17°
992.6 hPa 3.1 mm
82%
15.8°
5
Windvlaag: 9.5 m/s
49%
13:00
17°
992.1 hPa 3.3 mm
82%
15.5°
5
Windvlaag: 9.7 m/s
79%
14:00
17°
991.8 hPa 4.2 mm
82%
15.3°
4
Windvlaag: 8.6 m/s
68%
15:00
17°
991.4 hPa 4.0 mm
78%
15.1°
4
Windvlaag: 7.1 m/s
52%
16:00
16°
991.0 hPa
82%
15.2°
4
Windvlaag: 7.8 m/s
49%
17:00
17°
990.6 hPa 4.5 mm
81%
15.0°
3
Windvlaag: 6.5 m/s
14%
18:00
16°
990.5 hPa
73%
15.2°
2
Windvlaag: 4.4 m/s
21%
19:00
15°
990.5 hPa
69%
14.9°
1
Windvlaag: 2.7 m/s
17%
20:00
15°
990.5 hPa
14%
14.3°
1
Windvlaag: 0.9 m/s
7%
21:00
14°
990.8 hPa
14%
13.9°
1
Windvlaag: 0.4 m/s
9%
22:00
14°
991.2 hPa
14%
13.5°
1
Windvlaag: 0.8 m/s
29%
23:00
14°
991.5 hPa
14%
13.1°
1
Windvlaag: 1.4 m/s
24%
 02:07     19:02    Daglengte: 16:55 Zaterdag 31 Jul
00:00
13°
992.1 hPa
14%
12.6°
2
Windvlaag: 2.4 m/s
52%
01:00
13°
992.7 hPa
14%
12.7°
2
Windvlaag: 2.1 m/s
41%
02:00
13°
993.3 hPa
14%
12.9°
2
Windvlaag: 1.7 m/s
37%
03:00
12°
994.3 hPa
21%
12.3°
1
Windvlaag: 2 m/s
63%
04:00
14°
994.8 hPa
21%
12.5°
1
Windvlaag: 2 m/s
53%
05:00
15°
995.1 hPa
21%
13.2°
1
Windvlaag: 2.6 m/s
56%
06:00
17°
995.5 hPa
21%
13.4°
2
Windvlaag: 4.3 m/s
48%
07:00
18°
995.9 hPa
21%
13.3°
2
Windvlaag: 5 m/s
30%
08:00
19°
996.2 hPa 7.4 mm
21%
13.2°
3
Windvlaag: 3.6 m/s
49%
09:00
20°
996.6 hPa 7.6 mm
21%
13.6°
3
Windvlaag: 3 m/s
79%
10:00
21°
997.1 hPa 8.1 mm
21%
15.4°
3
Windvlaag: 3.3 m/s
78%
11:00
22°
997.2 hPa 7.8 mm
21%
15.3°
4
Windvlaag: 4.6 m/s
66%
12:00
22°
997.4 hPa 7.3 mm
22%
14.5°
4
Windvlaag: 4.2 m/s
72%
13:00
22°
997.5 hPa 7.5 mm
80%
14.8°
4
Windvlaag: 3.9 m/s
88%
14:00
20°
997.7 hPa 7.6 mm
89%
14.2°
4
Windvlaag: 4.3 m/s
74%
15:00
20°
997.9 hPa
87%
14.7°
4
Windvlaag: 5.2 m/s
72%
16:00
20°
997.8 hPa 7.4 mm
72%
14.9°
3
Windvlaag: 5 m/s
67%
17:00
20°
997.7 hPa
34%
14.6°
3
Windvlaag: 4.8 m/s
68%
18:00
18°
997.7 hPa 7.4 mm
77%
15.1°
2
Windvlaag: 5.3 m/s
68%
19:00
17°
997.8 hPa
95%
15.1°
2
Windvlaag: 4.7 m/s
54%
20:00
16°
997.7 hPa
94%
14.7°
3
Windvlaag: 4.2 m/s
71%
21:00
16°
997.6 hPa 7.3 mm
35%
15.2°
3
Windvlaag: 4.6 m/s
80% warningclass
22:00
16°
997.3 hPa 7.4 mm
25%
15.5°
3
Windvlaag: 4.2 m/s
83% warningclass
23:00
16°
997.0 hPa 7.5 mm
34%
15.7°
2
Windvlaag: 4.3 m/s
83% warningclass
 02:09     18:59    Daglengte: 16:50 Zondag 01 Aug
00:00
16°
996.3 hPa 8.0 mm
35%
15.3°
3
Windvlaag: 4.5 m/s
88% warningclass
01:00
16°
995.7 hPa
36%
15.2°
3
Windvlaag: 9 m/s
58%
02:00
16°
995.2 hPa
22%
14.6°
4
Windvlaag: 10.6 m/s
85%
03:00
16°
994.7 hPa
22%
14.5°
4
Windvlaag: 9.4 m/s
90%
04:00
17°
994.3 hPa
32%
15.4°
4
Windvlaag: 8.7 m/s
83%
05:00
17°
993.8 hPa
94%
15.9°
4
Windvlaag: 8.7 m/s
99%
Temp/Neerslag /Baro Onweer/Dauwpunt
    Temp Baro Neerslag Dauwpunt Wind Bewolking  
 02:02     19:07    Daglengte: 17:05 Vandaag
12:00
22°
998.9 hPa 0.2 mm 13.5°
7
6%
15:00
22°
998.5 hPa   13.5°
7
4%
18:00
20°
997.9 hPa   15.4°
5
26%
21:00
18°
997.2 hPa   16.3°
4
8%
 02:04     19:04    Daglengte: 17:00 Morgen
00:00
16°
996.3 hPa   15.0°
4
2%
03:00
15°
995.3 hPa   14.5°
4
21%
06:00
17°
993.9 hPa   14.7°
4
64%
09:00
18°
993.2 hPa   15.3°
4
58%
12:00
17°
992.6 hPa 3.1 mm 15.8°
5
49%
15:00
17°
991.4 hPa 11.4 mm 15.1°
4
52%
18:00
16°
990.5 hPa 4.5 mm 15.2°
2
21%
21:00
14°
990.8 hPa   13.9°
1
9%
 02:07     19:02    Daglengte: 16:55 Zaterdag 31 Jul
00:00
13°
992.1 hPa   12.6°
2
52%
03:00
12°
994.3 hPa   12.3°
1
63%
06:00
17°
995.5 hPa   13.4°
2
48%
09:00
20°
996.6 hPa 15.1 mm 13.6°
3
79%
12:00
22°
997.4 hPa 23.3 mm 14.5°
4
72%
15:00
20°
997.9 hPa 15.1 mm 14.7°
4
72%
18:00
18°
997.7 hPa 14.8 mm 15.1°
2
68%
21:00
16°
997.6 hPa 7.3 mm 15.2°
3
80% warningclass
 02:09     18:59    Daglengte: 16:50 Zondag 01 Aug
00:00
16°
996.3 hPa 22.9 mm 15.3°
3
88% warningclass
03:00
16°
994.7 hPa   14.5°
4
90%
06:00
17°
993.0 hPa   15.4°
3
99%
09:00
19°
994.9 hPa 17.9 mm 16.2°
6
1%
12:00
18°
996.1 hPa 20.0 mm 15.6°
5
1%
15:00
18°
998.2 hPa 20.6 mm 13.6°
5
0%
18:00
16°
999.5 hPa 20.7 mm 10.9°
4
1%
21:00
13°
1000.9 hPa 20.7 mm 9.9°
3
0%
 02:12     18:57    Daglengte: 16:45 Maandag 02 Aug
00:00
12°
1001.8 hPa 20.7 mm 9.7°
2
0%
03:00
12°
1002.8 hPa 20.7 mm 10.9°
2
1%
06:00
16°
1003.9 hPa 20.7 mm 9.2°
3
0%
09:00
19°
1004.0 hPa 20.9 mm 8.4°
3
0%
12:00
18°
1004.7 hPa 21.1 mm 9.7°
3
1%
15:00
18°
1005.1 hPa 21.3 mm 7.1°
3
1%
18:00
15°
1005.9 hPa 21.3 mm 7.3°
3
1%
21:00
11°
1007.6 hPa 21.4 mm 7.2°
2
1%
 02:14     18:54    Daglengte: 16:40 Dinsdag 03 Aug
00:00
Voelt als: 7.5°
1008.7 hPa 21.4 mm 6.2°
2
1%
03:00
Voelt als: 8.0°
1009.5 hPa 21.4 mm 5.3°
2
1%
06:00
15°
1009.8 hPa 21.4 mm 5.7°
1
0%
09:00
19°
1010.2 hPa 21.4 mm 4.2°
3
0%
12:00
18°
1010.6 hPa 21.4 mm 4.5°
3
1%
15:00
18°
1011.1 hPa 21.4 mm 6.0°
3
1%
18:00
15°
1012.0 hPa 21.4 mm 7.2°
2
1%
21:00
12°
1013.1 hPa 21.4 mm 6.5°
1
1%
 02:16     18:51    Daglengte: 16:35 Woensdag 04 Aug
00:00
11°
1013.7 hPa 21.4 mm 5.5°
1
1%
03:00
11°
1014.0 hPa 21.6 mm 7.4°
1
1%
06:00
13°
1014.4 hPa 22.3 mm 11.4°
2
1%
09:00
15°
1014.2 hPa 22.5 mm 11.7°
1
1%
12:00
15°
1014.1 hPa 23.0 mm 12.3°
3
1%
15:00
15°
1013.7 hPa 23.0 mm 12.2°
3
1%
18:00
14°
1013.6 hPa 23.0 mm 12.0°
2
1%
21:00
11°
1013.9 hPa 23.0 mm 10.9°
2
1%
 02:19     18:49    Daglengte: 16:30 Donderdag 05 Aug
00:00
11°
1013.8 hPa 23.0 mm 10.7°
2
0%
03:00
11°
1013.9 hPa 23.0 mm 10.6°
2
0%
06:00
16°
1013.9 hPa 23.0 mm 12.8°
2
0%
09:00
22°
1014.0 hPa   12.4°
1
0%
12:00
25°
1013.3 hPa 46.1 mm 10.3°
2
1%
18:00
17°
1013.8 hPa 46.2 mm 13.9°
2
1%
 02:21     18:46    Daglengte: 16:25 Vrijdag 06 Aug
00:00
13°
1014.7 hPa 46.4 mm 12.0°
0
1%
06:00
18°
1014.4 hPa 46.5 mm 12.0°
0
1%
12:00
25°
1013.8 hPa 46.5 mm 9.1°
1
0%
18:00
17°
1014.2 hPa 46.8 mm 13.9°
2
1%
 02:24     18:43    Daglengte: 16:19 Zaterdag 07 Aug
00:00
13°
1014.7 hPa 48.3 mm 12.0°
2
0%
06:00
18°
1015.1 hPa 48.5 mm 13.3°
2
0%
12:00
26°
1013.9 hPa 48.5 mm 10.0°
2
0%
18:00
19°
1014.7 hPa 48.5 mm 14.1°
2
1%
 02:26     18:41    Daglengte: 16:15 Zondag 08 Aug
00:00
15°
1015.5 hPa 48.5 mm 14.0°
2
1%
06:00
17°
1009.8 hPa 0.3 mm 12.9°
2
60%
12:00
21°
1010.3 hPa 0.5 mm 12.7°
2
61%
18:00
17°
1010.7 hPa 0.7 mm 13.2°
1
66%
 02:29     18:38    Daglengte: 16:09 Maandag 09 Aug
00:00
15°
1011.2 hPa 0.3 mm 13.0°
1
69%
06:00
17°
1010.9 hPa 0.5 mm 13.6°
2
70%
12:00
20°
1011.2 hPa 2.2 mm 14.0°
2
77%
18:00
17°
1011.0 hPa 1.5 mm 13.9°
1
69%
 02:31     18:35    Daglengte: 16:04 Dinsdag 10 Aug
00:00
14°
1011.3 hPa 0.5 mm 12.8°
0
59%
06:00
17°
1011.4 hPa 0.2 mm 14.0°
1
64%
12:00
20°
1011.8 hPa 1.5 mm 13.7°
1
66%
18:00
17°
1011.9 hPa 0.8 mm 13.8°
1
64%
 02:33     18:32    Daglengte: 15:59 Woensdag 11 Aug
00:00
14°
1012.3 hPa 0.1 mm 12.8°
0
63%
06:00
17°
1012.4 hPa 0.4 mm 13.5°
0
65%
12:00
21°
1012.6 hPa 1.5 mm 13.1°
2
66%
18:00
17°
1012.7 hPa 1.0 mm 13.5°
1
65%
 02:36     18:29    Daglengte: 15:53 Donderdag 12 Aug
00:00
14°
1012.9 hPa 0.2 mm 12.6°
0
50%
06:00
17°
1012.9 hPa 0.2 mm 13.3°
1
48%
12:00
21°
1013.1 hPa 0.9 mm 12.5°
2
50%
18:00
17°
1013.1 hPa 0.6 mm 13.2°
1
42%
 02:38     18:27    Daglengte: 15:49 Vrijdag 13 Aug
00:00
14°
1013.2 hPa 0.2 mm 12.5°
0
46%
06:00
17°
1013.1 hPa 0.3 mm 13.0°
1
47%
  CAPE Lifted Index Hail Supercell Tornado SRH 3km CL BTM PRES CL TOP PRES Swiss DWD icon SMHI TS
 02:02     19:07    Daglengte: 17:05 Vandaag
10:00 121 J/kg 0.0 K 0 % 0 % 0 % 0 m²/s² 0 0 2.82 3
11:00 69 J/kg 0.4 K 0 % 0 % 0 % 0 m²/s² 0 0 3.31 2
12:00 64 J/kg 0.7 K 0 % 0 % 0 % 0 m²/s² 0 0 3.58 2
13:00 32 J/kg 1.0 K 0 % 0 % 0 % 0 m²/s² 0 0 4.24 2
14:00 36 J/kg 1.2 K 0 % 0 % 0 % 0 m²/s² 0 0 4.26 2
15:00 75 J/kg 1.1 K 0 % 0 % 0 % 0 m²/s² 0 0 4.88 2
16:00 159 J/kg 0.4 K 0 % 0 % 0 % 0 m²/s² 0 0 4.81 2
17:00 214 J/kg 0.4 K 0 % 0 % 0 % 0 m²/s² 0 0 5.14 2
18:00 275 J/kg 0.3 K 0 % 0 % 0 % 0 m²/s² 0 0 3.69 2
19:00 325 J/kg 0.1 K 0 % 0 % 0 % 0 m²/s² 0 0 3.67 2
20:00 311 J/kg 0.4 K 0 % 0 % 0 % 0 m²/s² 0 0 3.61 2
21:00 264 J/kg 1.1 K 0 % 0 % 0 % 0 m²/s² 0 0 3.65 1
22:00 240 J/kg 1.6 K 0 % 0 % 0 % 0 m²/s² 0 0 3.16 2
23:00 224 J/kg 1.6 K 0 % 0 % 0 % 0 m²/s² 0 0 5.11 2
 02:04     19:04    Daglengte: 17:00 Morgen
00:00 152 J/kg 1.9 K 0 % 0 % 0 % 0 m²/s² 0 0 4.63 2
01:00 311 J/kg -0.4 K 0 % 0 % 0 % 0 m²/s² 0 0 2.24 2
02:00 342 J/kg -1.4 K 0 % 0 % 0 % 0 m²/s² 0 0 0.43 2
03:00 356 J/kg -1.4 K 0 % 0 % 0 % 0 m²/s² 0 0 -0.05 2
04:00 77 J/kg -0.7 K 0 % 0 % 0 % 0 m²/s² 0 0 0.56 3
05:00 572 J/kg -2.6 K 0 % 0 % 0 % 0 m²/s² 0 0 -1.22 3
06:00 452 J/kg -1.7 K 0 % 0 % 0 % 0 m²/s² 0 0 -1.07 3
07:00 586 J/kg -2.5 K 0 % 0 % 0 % 0 m²/s² 0 0 -2.29 3
08:00 644 J/kg -2.7 K 0 % 0 % 0 % 0 m²/s² 0 0 -1.86 3
09:00 538 J/kg -2.1 K 0 % 0 % 0 % 0 m²/s² 0 0 -0.87 3
10:00 489 J/kg -1.3 K 0 % 0 % 0 % 0 m²/s² 0 0 -1.18 3
11:00 191 J/kg -0.4 K 0 % 0 % 0 % 0 m²/s² 0 0 0.98 3
12:00 9 J/kg 1.2 K 0 % 0 % 0 % 0 m²/s² 0 0 2.22 3
13:00 109 J/kg 0.3 K 0 % 0 % 0 % 0 m²/s² 0 0 0.75 80
14:00 397 J/kg -1.3 K 0 % 0 % 0 % 0 m²/s² 0 0 -0.76 80
15:00 525 J/kg -1.9 K 0 % 0 % 0 % 0 m²/s² 0 0 -1.69 3
16:00 148 J/kg -0.2 K 0 % 0 % 0 % 0 m²/s² 0 0 0.34 3
17:00 71 J/kg -0.7 K 0 % 0 % 0 % 0 m²/s² 0 0 1.25 2
18:00 247 J/kg -1.6 K 0 % 0 % 0 % 0 m²/s² 0 0 0.23 2
19:00 181 J/kg -1.6 K 0 % 0 % 0 % 0 m²/s² 0 0 0.11 2
20:00 125 J/kg -1.7 K 0 % 0 % 0 % 0 m²/s² 0 0 -0.11 2
21:00 76 J/kg -1.4 K 0 % 0 % 0 % 0 m²/s² 0 0 -0.14 2
22:00 4 J/kg 0.6 K 0 % 0 % 0 % 0 m²/s² 0 0 2.37 2
23:00 0 J/kg 2.1 K 0 % 0 % 0 % 0 m²/s² 0 0 4.41 45
 02:07     19:02    Daglengte: 16:55 Zaterdag 31 Jul
00:00 0 J/kg 2.6 K 0 % 0 % 0 % 0 m²/s² 0 0 4.4 45
01:00 0 J/kg 2.8 K 0 % 0 % 0 % 0 m²/s² 0 0 4.12 45
02:00 0 J/kg 3.6 K 0 % 0 % 0 % 0 m²/s² 0 0 5.34 45
03:00 0 J/kg 4.1 K 0 % 0 % 0 % 0 m²/s² 0 0 8 2
04:00 0 J/kg 3.9 K 0 % 0 % 0 % 0 m²/s² 0 0 9.36 2
05:00 0 J/kg 3.2 K 0 % 0 % 0 % 0 m²/s² 0 0 8.39 1
06:00 0 J/kg 2.1 K 0 % 0 % 0 % 0 m²/s² 0 0 7.17 2
07:00 3 J/kg 1.5 K 0 % 0 % 0 % 0 m²/s² 0 0 6.21 2
08:00 37 J/kg 0.3 K 0 % 0 % 0 % 0 m²/s² 0 0 4.14 2
09:00 374 J/kg -1.2 K 0 % 0 % 0 % 0 m²/s² 0 0 0.87 1
10:00 768 J/kg -2.9 K 0 % 0 % 0 % 0 m²/s² 0 0 -1.22 3
11:00 911 J/kg -3.4 K 0 % 0 % 0 % 0 m²/s² 0 0 -0.91 3
12:00 822 J/kg -3.0 K 0 % 0 % 0 % 0 m²/s² 0 0 -0.57 3
13:00 827 J/kg -3.2 K 0 % 0 % 0 % 0 m²/s² 0 0 -1.97 3
14:00 703 J/kg -2.9 K 0 % 0 % 0 % 0 m²/s² 0 0 -1.55 3
15:00 698 J/kg -3.0 K 0 % 0 % 0 % 0 m²/s² 0 0 -1.05 3
16:00 602 J/kg -2.8 K 0 % 0 % 0 % 0 m²/s² 0 0 -0.07 3
17:00 360 J/kg -2.2 K 0 % 0 % 0 % 0 m²/s² 0 0 0.23 3
18:00 366 J/kg -2.2 K 0 % 0 % 0 % 0 m²/s² 0 0 -0.58 3
19:00 391 J/kg -2.4 K 0 % 0 % 0 % 0 m²/s² 0 0 -0.39 3
20:00 551 J/kg -2.5 K 0 % 0 % 0 % 0 m²/s² 0 0 -1.27 3
21:00 931 J/kg -3.8 K 0 % 0 % 0 % 0 m²/s² 0 0 -2.57 3
22:00 1203 J/kg -4.9 K 0 % 0 % 0 % 0 m²/s² 0 0 -4.12 3
23:00 777 J/kg -3.3 K 0 % 0 % 0 % 0 m²/s² 0 0 -2.88 3
 02:09     18:59    Daglengte: 16:50 Zondag 01 Aug
00:00 909 J/kg -4.0 K 0 % 0 % 0 % 0 m²/s² 0 0 -2.65 3
01:00 460 J/kg -3.2 K 0 % 0 % 0 % 0 m²/s² 0 0 -1.52 3
02:00 388 J/kg -3.6 K 0 % 0 % 0 % 0 m²/s² 0 0 -1.56 3
03:00 444 J/kg -3.8 K 0 % 0 % 0 % 0 m²/s² 0 0 -1.88 3
04:00 758 J/kg -3.8 K 0 % 0 % 0 % 0 m²/s² 0 0 -2.72 3
05:00 1034 J/kg -4.7 K 0 % 0 % 0 % 0 m²/s² 0 0 -4.37 3
Temp Baro Wind Neerslag
  EWN Forecast EWN WRFDA DWD ICON FMI HIRLAM MET Norway GFS
 02:02     19:07    Daglengte: 17:05 Vandaag
12:00 22.4° 998.9 hPa 6.5 m/s 0.2 mm 23.1° 999.4 hPa 7.9 m/s 1.2 mm 22.0° 998.0 hPa 6.4 m/s 0.3 mm 24.4° 998.9 hPa 6.0 m/s 0.0 mm 23.4° 998.9 hPa 7.0 m/s
15:00 21.8° 998.5 hPa 6.6 m/s 0.0 mm 21.9° 998.8 hPa 8.0 m/s 1.2 mm 21.7° 998.0 hPa 7.1 m/s 0.0 mm 23.2° 998.7 hPa 5.7 m/s 0.0 mm 22.6° 998.4 hPa 6.4 m/s
18:00 19.5° 997.9 hPa 5.0 m/s 0.0 mm 19.7° 997.9 hPa 5.0 m/s 1.2 mm 19.0° 997.7 hPa 5.9 m/s 0.0 mm 20.4° 998.3 hPa 4.3 m/s 0.0 mm 19.7° 997.8 hPa 4.7 m/s
21:00 17.7° 997.2 hPa 4.0 m/s 0.0 mm 16.8° 997.0 hPa 3.8 m/s 1.2 mm 17.4° 997.1 hPa 4.0 m/s 0.0 mm 17.9° 997.4 hPa 3.4 m/s 0.0 mm 18.6° 997.4 hPa 4.6 m/s
 02:04     19:04    Daglengte: 17:00 Morgen
00:00 16.2° 996.3 hPa 3.6 m/s 0.0 mm 15.4° 996.1 hPa 4.3 m/s 1.3 mm 16.1° 996.3 hPa 3.8 m/s 0.1 mm 16.3° 996.6 hPa 3.6 m/s 0.0 mm 17.2° 996.8 hPa 4.5 m/s
03:00 15.4° 995.3 hPa 3.6 m/s 0.0 mm 16.2° 995.6 hPa 5.9 m/s 1.3 mm 15.4° 995.3 hPa 3.5 m/s 0.0 mm 15.0° 995.2 hPa 2.6 m/s 0.0 mm 15.8° 996.2 hPa 3.6 m/s
06:00 16.6° 993.9 hPa 4.2 m/s 0.0 mm 15.8° 993.7 hPa 2.5 m/s 5.7 mm 16.7° 994.4 hPa 4.8 m/s 0.1 mm 17.0° 993.7 hPa 4.2 m/s 0.0 mm 16.7° 995.1 hPa 4.1 m/s
09:00 17.8° 993.2 hPa 4.5 m/s 0.0 mm 18.2° 992.2 hPa 4.5 m/s 24.2 mm 17.8° 993.9 hPa 5.1 m/s 0.1 mm 17.9° 992.2 hPa 4.4 m/s 0.0 mm 18.1° 994.5 hPa 5.0 m/s
12:00 17.2° 992.6 hPa 4.7 m/s 3.1 mm 14.6° 993.1 hPa 6.3 m/s 35.4 mm 18.2° 993.3 hPa 5.4 m/s 0.4 mm 17.5° 991.3 hPa 4.5 m/s 0.0 mm 14.4° 994.5 hPa 3.6 m/s
15:00 16.7° 991.4 hPa 3.7 m/s 11.4 mm 16.6° 991.3 hPa 4.1 m/s 47.9 mm 17.5° 992.4 hPa 4.6 m/s 0.5 mm 16.2° 989.3 hPa 3.4 m/s 0.0 mm 17.6° 992.7 hPa 3.5 m/s
18:00 16.2° 990.5 hPa 2.1 m/s 4.5 mm 15.3° 990.9 hPa 1.7 m/s 64.1 mm 16.4° 991.5 hPa 2.9 m/s 0.2 mm 16.6° 986.5 hPa 1.7 m/s 0.0 mm 15.4° 991.1 hPa 1.5 m/s
21:00 14.2° 990.8 hPa 1.2 m/s 0.0 mm 11.8° 991.0 hPa 2.2 m/s 64.2 mm 14.4° 991.7 hPa 1.0 m/s 0.0 mm 16.0° 986.4 hPa 1.3 m/s 0.0 mm 12.8° 991.7 hPa 1.0 m/s
 02:07     19:02    Daglengte: 16:55 Zaterdag 31 Jul
00:00 13.2° 992.1 hPa 1.5 m/s 0.0 mm 11.3° 992.5 hPa 2.8 m/s 64.2 mm 13.2° 992.5 hPa 0.7 m/s 0.0 mm 15.4° 988.7 hPa 3.8 m/s 0.0 mm 11.8° 993.2 hPa 1.6 m/s
03:00 12.4° 994.3 hPa 1.1 m/s 0.0 mm 11.1° 993.8 hPa 2.6 m/s 64.2 mm 13.7° 994.4 hPa 0.9 m/s 0.0 mm 11.3° 994.9 hPa 1.8 m/s
06:00 16.7° 995.5 hPa 2.1 m/s 0.0 mm 16.9° 994.9 hPa 2.4 m/s 64.2 mm 16.9° 996.1 hPa 1.8 m/s 0.0 mm 16.1° 996.6 hPa 2.7 m/s
09:00 20.3° 996.6 hPa 2.8 m/s 15.1 mm 21.4° 995.6 hPa 2.7 m/s 64.2 mm 20.5° 997.1 hPa 2.3 m/s 0.0 mm 22.0° 997.5 hPa 3.5 m/s
12:00 22.0° 997.4 hPa 3.8 m/s 23.3 mm 22.9° 996.0 hPa 4.4 m/s 64.7 mm 22.6° 997.6 hPa 3.2 m/s 0.0 mm 23.5° 998.4 hPa 4.9 m/s
15:00 20.5° 997.9 hPa 3.6 m/s 15.1 mm 21.5° 997.0 hPa 5.4 m/s 65.0 mm 20.6° 998.1 hPa 2.6 m/s 0.2 mm 22.0° 999.4 hPa 4.1 m/s
18:00 18.4° 997.7 hPa 2.5 m/s 14.8 mm 18.6° 997.4 hPa 2.6 m/s 65.0 mm 18.6° 997.7 hPa 2.3 m/s 0.1 mm 18.4° 999.6 hPa 2.7 m/s
21:00 15.7° 997.6 hPa 2.5 m/s 7.3 mm 15.5° 996.7 hPa 2.5 m/s 65.0 mm 16.4° 997.7 hPa 3.0 m/s 0.1 mm 15.1° 999.5 hPa 2.3 m/s
 02:09     18:59    Daglengte: 16:50 Zondag 01 Aug
00:00 16.2° 996.3 hPa 3.0 m/s 22.9 mm 17.1° 996.0 hPa 3.4 m/s 66.1 mm 16.3° 996.3 hPa 3.4 m/s 0.0 mm 16.1° 997.7 hPa 3.1 m/s
03:00 16.1° 994.7 hPa 3.8 m/s 0.0 mm 16.3° 994.1 hPa 5.1 m/s 68.0 mm 16.1° 994.9 hPa 3.5 m/s 0.0 mm 16.1° 996.3 hPa 3.7 m/s
06:00 17.1° 993.0 hPa 3.5 m/s 0.0 mm 16.7° 992.9 hPa 2.1 m/s 72.0 mm 17.2° 993.0 hPa 3.8 m/s 0.1 mm 17.6° 995.1 hPa 4.4 m/s
09:00 18.8° 994.9 hPa 5.6 m/s 17.9 mm 18.8° 994.9 hPa 5.6 m/s 17.9 mm
12:00 17.8° 996.1 hPa 5.4 m/s 20.0 mm 17.8° 996.1 hPa 5.4 m/s 20.0 mm
15:00 18.2° 998.2 hPa 5.4 m/s 20.6 mm 18.2° 998.2 hPa 5.4 m/s 20.6 mm
18:00 15.9° 999.5 hPa 3.6 m/s 20.7 mm 15.9° 999.5 hPa 3.6 m/s 20.7 mm
21:00 12.5° 1000.9 hPa 2.6 m/s 20.7 mm 12.5° 1000.9 hPa 2.6 m/s 20.7 mm
 02:12     18:57    Daglengte: 16:45 Maandag 02 Aug
00:00 11.8° 1001.8 hPa 2.4 m/s 20.7 mm 11.8° 1001.8 hPa 2.4 m/s 20.7 mm
03:00 12.3° 1002.8 hPa 2.4 m/s 20.7 mm 12.3° 1002.8 hPa 2.4 m/s 20.7 mm
06:00 15.9° 1003.9 hPa 2.5 m/s 20.7 mm 15.9° 1003.9 hPa 2.5 m/s 20.7 mm
09:00 18.7° 1004.0 hPa 2.9 m/s 20.9 mm 18.7° 1004.0 hPa 2.9 m/s 20.9 mm
12:00 18.0° 1004.7 hPa 2.7 m/s 21.1 mm 18.0° 1004.7 hPa 2.7 m/s 21.1 mm
15:00 18.0° 1005.1 hPa 2.6 m/s 21.3 mm 18.0° 1005.1 hPa 2.6 m/s 21.3 mm
18:00 15.2° 1005.9 hPa 2.7 m/s 21.3 mm 15.2° 1005.9 hPa 2.7 m/s 21.3 mm
21:00 11.1° 1007.6 hPa 2.3 m/s 21.4 mm 11.1° 1007.6 hPa 2.3 m/s 21.4 mm
 02:14     18:54    Daglengte: 16:40 Dinsdag 03 Aug
00:00 8.5° 1008.7 hPa 2.0 m/s 21.4 mm 8.5° 1008.7 hPa 2.0 m/s 21.4 mm
03:00 8.6° 1009.5 hPa 1.5 m/s 21.4 mm 8.6° 1009.5 hPa 1.5 m/s 21.4 mm
06:00 15.5° 1009.8 hPa 1.4 m/s 21.4 mm 15.5° 1009.8 hPa 1.4 m/s 21.4 mm
09:00 19.0° 1010.2 hPa 2.5 m/s 21.4 mm 19.0° 1010.2 hPa 2.5 m/s 21.4 mm
12:00 18.4° 1010.6 hPa 3.3 m/s 21.4 mm 18.4° 1010.6 hPa 3.3 m/s 21.4 mm
15:00 18.1° 1011.1 hPa 3.0 m/s 21.4 mm 18.1° 1011.1 hPa 3.0 m/s 21.4 mm
18:00 14.8° 1012.0 hPa 2.4 m/s 21.4 mm 14.8° 1012.0 hPa 2.4 m/s 21.4 mm
21:00 12.0° 1013.1 hPa 1.3 m/s 21.4 mm 12.0° 1013.1 hPa 1.3 m/s 21.4 mm
 02:16     18:51    Daglengte: 16:35 Woensdag 04 Aug
00:00 10.7° 1013.7 hPa 0.9 m/s 21.4 mm 10.7° 1013.7 hPa 0.9 m/s 21.4 mm
03:00 11.2° 1014.0 hPa 1.1 m/s 21.6 mm 11.2° 1014.0 hPa 1.1 m/s 21.6 mm
06:00 13.2° 1014.4 hPa 2.1 m/s 22.3 mm 13.2° 1014.4 hPa 2.1 m/s 22.3 mm
09:00 15.1° 1014.2 hPa 1.5 m/s 22.5 mm 15.1° 1014.2 hPa 1.5 m/s 22.5 mm
12:00 14.8° 1014.1 hPa 2.7 m/s 23.0 mm 14.8° 1014.1 hPa 2.7 m/s 23.0 mm
15:00 15.1° 1013.7 hPa 2.8 m/s 23.0 mm 15.1° 1013.7 hPa 2.8 m/s 23.0 mm
18:00 14.1° 1013.6 hPa 2.0 m/s 23.0 mm 14.1° 1013.6 hPa 2.0 m/s 23.0 mm
21:00 11.4° 1013.9 hPa 1.9 m/s 23.0 mm 11.4° 1013.9 hPa 1.9 m/s 23.0 mm
 02:19     18:49    Daglengte: 16:30 Donderdag 05 Aug
00:00 11.0° 1013.8 hPa 1.8 m/s 23.0 mm 11.0° 1013.8 hPa 1.8 m/s 23.0 mm
03:00 10.9° 1013.9 hPa 1.7 m/s 23.0 mm 10.9° 1013.9 hPa 1.7 m/s 23.0 mm
06:00 16.4° 1013.9 hPa 1.9 m/s 23.0 mm 16.4° 1013.9 hPa 1.9 m/s 23.0 mm
09:00 22.4° 1014.0 hPa 1.0 m/s 23.0 mm 22.4° 1014.0 hPa 1.0 m/s 23.0 mm
12:00 24.5° 1013.3 hPa 1.5 m/s 23.1 mm 24.5° 1013.3 hPa 1.5 m/s 23.1 mm
18:00 16.9° 1013.8 hPa 2.3 m/s 23.2 mm 16.9° 1013.8 hPa 2.3 m/s 23.2 mm
 02:21     18:46    Daglengte: 16:25 Vrijdag 06 Aug
00:00 12.8° 1014.7 hPa 0.4 m/s 23.3 mm 12.8° 1014.7 hPa 0.4 m/s 23.3 mm
06:00 18.2° 1014.4 hPa 0.4 m/s 23.3 mm 18.2° 1014.4 hPa 0.4 m/s 23.3 mm
12:00 25.3° 1013.8 hPa 1.2 m/s 23.3 mm 25.3° 1013.8 hPa 1.2 m/s 23.3 mm
18:00 16.8° 1014.2 hPa 2.0 m/s 23.6 mm 16.8° 1014.2 hPa 2.0 m/s 23.6 mm
 02:24     18:43    Daglengte: 16:19 Zaterdag 07 Aug
00:00 13.3° 1014.7 hPa 1.9 m/s 24.2 mm 13.3° 1014.7 hPa 1.9 m/s 24.2 mm
06:00 18.3° 1015.1 hPa 1.8 m/s 24.2 mm 18.3° 1015.1 hPa 1.8 m/s 24.2 mm
12:00 25.8° 1013.9 hPa 1.5 m/s 24.3 mm 25.8° 1013.9 hPa 1.5 m/s 24.3 mm
18:00 18.7° 1014.7 hPa 1.7 m/s 24.3 mm 18.7° 1014.7 hPa 1.7 m/s 24.3 mm
 02:26     18:41    Daglengte: 16:15 Zondag 08 Aug
00:00 14.5° 1015.5 hPa 1.7 m/s 24.3 mm 14.5° 1015.5 hPa 1.7 m/s 24.3 mm
06:00 17.3° 1009.8 hPa 1.7 m/s 0.3 mm
12:00 20.9° 1010.3 hPa 2.2 m/s 0.5 mm
18:00 17.4° 1010.7 hPa 1.3 m/s 0.7 mm
 02:29     18:38    Daglengte: 16:09 Maandag 09 Aug
00:00 14.8° 1011.2 hPa 1.3 m/s 0.3 mm
06:00 17.3° 1010.9 hPa 1.7 m/s 0.5 mm
12:00 19.8° 1011.2 hPa 1.7 m/s 2.2 mm
18:00 17.1° 1011.0 hPa 0.8 m/s 1.5 mm
 02:31     18:35    Daglengte: 16:04 Dinsdag 10 Aug
00:00 14.5° 1011.3 hPa 0.4 m/s 0.5 mm
06:00 17.3° 1011.4 hPa 0.8 m/s 0.2 mm
12:00 20.4° 1011.8 hPa 1.4 m/s 1.5 mm
18:00 17.0° 1011.9 hPa 1.0 m/s 0.8 mm
 02:33     18:32    Daglengte: 15:59 Woensdag 11 Aug
00:00 14.3° 1012.3 hPa 0.3 m/s 0.1 mm
06:00 17.1° 1012.4 hPa 0.2 m/s 0.4 mm
12:00 21.3° 1012.6 hPa 1.5 m/s 1.5 mm
18:00 17.1° 1012.7 hPa 0.5 m/s 1.0 mm
 02:36     18:29    Daglengte: 15:53 Donderdag 12 Aug
00:00 14.5° 1012.9 hPa 0.2 m/s 0.2 mm
06:00 17.4° 1012.9 hPa 0.7 m/s 0.2 mm
12:00 21.3° 1013.1 hPa 1.7 m/s 0.9 mm
18:00 17.2° 1013.1 hPa 1.0 m/s 0.6 mm
 02:38     18:27    Daglengte: 15:49 Vrijdag 13 Aug
00:00 14.2° 1013.2 hPa 0.4 m/s 0.2 mm
06:00 17.3° 1013.1 hPa 0.8 m/s 0.3 mm
FMI Hirlam - 7.5 km EWN WRFDA - 12 km DWD ICON - 7 km GFS - 25 km Basiskaart






























































Updatetijd (Europe/Amsterdam) Resolutie Lengte Stap
FMI Hirlam 07:00, 13:00, 19:00, 01:00 7.5 km 49h 1h
EWN WRFDA 10:15, 16:15, 22:15, 04:15 12 km 73h 1h
DWD ICON 06:15, 12:15, 18:15, 00:15 7 km 75h 1h
GFS 08:15, 14:15, 20:15, 02:15 25 km 237h 3h
30+ mm
25-30 mm
20-25 mm
15-20 mm
10-15 mm
6-10 mm
4-6 mm
2-4 mm
1-2 mm
0.5-1 mm
0.2-0.5 mm
0.1-0.2 mm
30+ mm
25-30 mm
20-25 mm
15-20 mm
10-15 mm
6-10 mm
4-6 mm
2-4 mm
1-2 mm
0.5-1 mm
0.2-0.5 mm
0.1-0.2 mm
Sneeuwval
Natte sneeuw
Hagel
Vorst
30+ mm
25-30 mm
20-25 mm
15-20 mm
10-15 mm
6-10 mm
4-6 mm
2-4 mm
1-2 mm
0.5-1 mm
0.2-0.5 mm
0.1-0.2 mm
Sneeuwval
Natte sneeuw
Hagel
Vorst
Onweer
<
50 mm
40 mm
30 mm
26 mm